Location: Unspecified
(0.0000°N, 0.0000°E)
Time: 22:46:53
(UTC+00:00)

COSMOS 2391 - Pass Details

Date: 24 June 2024
Orbit: 1465 x 1506 km, 82.5° (Epoch: 21 July)

Event Time Altitude Azimuth Distance (km) Brightness Sun altitude
Rises 22:23:49 0° 358° (N) 4,607 11.4 -56.5°
Reaches altitude 10° 22:26:40 10° 359° (N) 3,633 10.7 -57.0°
Enters shadow 22:27:14 12° 359° (N) 3,443 10.5 -57.1°
